Wappingers Falls, NY

1:38 AM EST on February 21, 2017 (GMT -0500)
Dutchess County

Weather History for KPOU - July, 2013

Change the Weather History Date:

Friday, July 19, 2013

  Actual Average Record
Temperature  
Mean Temperature 86 °F 73 °F  
Max Temperature 97 °F 85 °F 102 °F (1991)
Min Temperature 74 °F 61 °F 51 °F (1956)
Degree Days  
Heating Degree Days 0 0  
Month to date heating degree days 0 0  
Since 1 June heating degree days 31 49  
Since 1 July heating degree days 0 0  
Cooling Degree Days 21 8  
Month to date cooling degree days 286 144  
Year to date cooling degree days 493 307  
Since 1 June cooling degree days 440 271  
Growing Degree Days 36 (Base 50)    
Moisture  
Dew Point 73 °F    
Average Humidity 71    
Maximum Humidity 94    
Minimum Humidity 48    
Precipitation  
Precipitation 0.00 in 0.16 in 1.93 in (2002)
Month to date precipitation 1.35 2.73  
Year to date precipitation 21.82 24.66  
Sea Level Pressure  
Sea Level Pressure 29.85 in    
Wind  
Wind Speed 6 mph (SW)    
Max Wind Speed 20 mph    
Max Gust Speed 26 mph    
Visibility 9 miles    
Events      
T = Trace of Precipitation, MM = Missing Value Source: NWS Daily Summary

Daily Weather History Graph

Daily Weather History Graph

Search for Another Location

Airport or City:

Trip Planner

Search our weather history database for the weather conditions in past years. The results will help you decide how hot, cold, wet, or windy it might be!

Date:

Astronomy

Jul. 19, 2013 Rise Set
Actual Time 5:37 AM EDT 8:25 PM EDT
Civil Twilight 5:05 AM EDT 8:57 PM EDT
Nautical Twilight 4:24 AM EDT 9:38 PM EDT
Astronomical Twilight 3:36 AM EDT 10:25 PM EDT
Moon 5:24 PM EDT (7/19) 2:16 AM EDT (7/19)
Length of Visible Light 15h 52m
Length of Day
14h 47m
Waxing Gibbous, 86% of the Moon is Illuminated
Jul 19
Waxing Gibbous
Jul 22
Full
Jul 29
Last Quarter
Aug 6
New
Aug 14
First Quarter

Hourly Weather History & Observations

Time (EDT) Temp. Heat Index Dew Point Humidity Pressure Visibility Wind Dir Wind Speed Gust Speed Precip Events Conditions
12:53 AM 78.1 °F - 73.9 °F 87% 29.94 in 9.0 mi Calm Calm - N/A   Clear
1:53 AM 75.9 °F - 73.9 °F 94% 29.94 in 8.0 mi Calm Calm - N/A   Clear
2:53 AM 75.9 °F - 73.9 °F 94% 29.94 in 7.0 mi Calm Calm - N/A   Clear
3:53 AM 75.0 °F - 73.0 °F 94% 29.92 in 7.0 mi Calm Calm - N/A   Clear
4:53 AM 78.1 °F - 73.0 °F 84% 29.92 in 10.0 mi South 3.5 mph - N/A   Clear
5:53 AM 77.0 °F - 73.0 °F 88% 29.91 in 9.0 mi Calm Calm - N/A   Clear
6:53 AM 78.1 °F - 73.0 °F 84% 29.91 in 8.0 mi Calm Calm - N/A   Clear
7:53 AM 82.0 °F 87.4 °F 73.0 °F 74% 29.92 in 10.0 mi Variable 3.5 mph - N/A   Clear
8:53 AM 84.0 °F 90.2 °F 73.0 °F 69% 29.92 in 10.0 mi Variable 6.9 mph - N/A   Clear
9:53 AM 88.0 °F 95.6 °F 73.0 °F 61% 29.91 in 10.0 mi WSW 9.2 mph - N/A   Clear
10:53 AM 90.0 °F 97.9 °F 73.0 °F 57% 29.90 in 10.0 mi SW 6.9 mph - N/A   Clear
11:53 AM 93.0 °F 103.2 °F 73.9 °F 54% 29.88 in 10.0 mi WSW 10.4 mph - N/A   Clear
12:53 PM 95.0 °F 105.2 °F 73.9 °F 50% 29.86 in 10.0 mi SW 10.4 mph 16.1 mph N/A   Clear
1:53 PM 95.0 °F 105.2 °F 73.9 °F 50% 29.83 in 10.0 mi SSW 12.7 mph 21.9 mph N/A   Partly Cloudy
2:53 PM 95.0 °F 105.2 °F 73.9 °F 50% 29.81 in 10.0 mi SW 9.2 mph - N/A   Partly Cloudy
3:53 PM 96.1 °F 105.6 °F 73.0 °F 47% 29.78 in 10.0 mi SW 13.8 mph 19.6 mph N/A   Partly Cloudy
4:53 PM 97.0 °F 107.0 °F 73.0 °F 46% 29.76 in 10.0 mi SW 9.2 mph - N/A   Clear
5:53 PM 95.0 °F 104.5 °F 73.0 °F 49% 29.74 in 10.0 mi WSW 10.4 mph 19.6 mph N/A   Partly Cloudy
6:53 PM 93.0 °F 103.2 °F 73.9 °F 54% 29.75 in 10.0 mi SW 6.9 mph - N/A   Clear
7:53 PM 91.0 °F 99.3 °F 73.0 °F 55% 29.75 in 9.0 mi SW 5.8 mph - N/A   Clear
8:53 PM 88.0 °F 96.5 °F 73.9 °F 63% 29.78 in 9.0 mi SSW 3.5 mph - N/A   Clear
9:53 PM 88.0 °F 95.6 °F 73.0 °F 61% 29.78 in 9.0 mi SSW 5.8 mph - N/A   Clear
10:53 PM 87.1 °F 94.5 °F 73.0 °F 63% 29.77 in 9.0 mi SSW 3.5 mph - N/A   Clear
11:53 PM 81.0 °F 86.2 °F 73.9 °F 79% 29.76 in 7.0 mi Calm Calm - N/A   Clear